VOE8QZ LFMN-LFQQ

Flight info

Callsign VOE8QZ
Flight time 1h 20m
Altitude 36000
Route IRMAR7C IRMAR DCT KINES DCT VANAS DCT MOBLO DCT UBIMA DCT UNKIR DCT DJL DCT BRY DCT CLM DCT KOPOR DCT PERON N874 CMB CMB5C
Aircraft A319/M-SDE1E2E3FGHIJ2J3J4J5M1RWXYZ/LB1D1

Departure

Time 2026-05-07 20:40
Airport Nice-Côte d'Azur Airport (LFMN)

Arrival

Time 2026-05-07 22:01
Airport Lille Airport (LFQQ)
Time Latitude Longitude Altitude Speed Heading
2026-05-07 20:14 43.66119 7.20676 27 ft 0 kts 261°
2026-05-07 20:31 43.66119 7.20680 26 ft 2 kts 261°
2026-05-07 20:31 43.66122 7.20701 26 ft 3 kts 261°
2026-05-07 20:32 43.66125 7.20727 26 ft 3 kts 261°
2026-05-07 20:32 43.66128 7.20755 26 ft 3 kts 261°
2026-05-07 20:32 43.66131 7.20783 26 ft 3 kts 261°
2026-05-07 20:32 43.66132 7.20789 26 ft 0 kts 233°
2026-05-07 20:33 43.66131 7.20787 26 ft 1 kts 227°
2026-05-07 20:33 43.66126 7.20785 26 ft 2 kts 187°
2026-05-07 20:34 43.66096 7.20791 26 ft 7 kts 171°
2026-05-07 20:34 43.66043 7.20805 26 ft 7 kts 166°
2026-05-07 20:34 43.65992 7.20817 26 ft 8 kts 171°
2026-05-07 20:34 43.65927 7.20832 26 ft 10 kts 170°
2026-05-07 20:35 43.65854 7.20849 26 ft 11 kts 171°
2026-05-07 20:35 43.65776 7.20868 26 ft 12 kts 171°
2026-05-07 20:35 43.65705 7.20883 26 ft 8 kts 171°
2026-05-07 20:35 43.65652 7.20896 26 ft 7 kts 170°
2026-05-07 20:36 43.65604 7.20906 26 ft 7 kts 170°
2026-05-07 20:36 43.65542 7.20920 26 ft 12 kts 172°
2026-05-07 20:36 43.65439 7.20939 26 ft 16 kts 172°
2026-05-07 20:36 43.65328 7.20924 26 ft 16 kts 218°
2026-05-07 20:37 43.65245 7.20811 26 ft 18 kts 226°
2026-05-07 20:37 43.65154 7.20689 26 ft 19 kts 224°
2026-05-07 20:37 43.65059 7.20560 26 ft 20 kts 224°
2026-05-07 20:37 43.64968 7.20433 26 ft 19 kts 225°
2026-05-07 20:38 43.64882 7.20312 26 ft 15 kts 225°
2026-05-07 20:38 43.64803 7.20208 26 ft 14 kts 212°
2026-05-07 20:38 43.64728 7.20194 26 ft 10 kts 138°
2026-05-07 20:38 43.64691 7.20260 26 ft 4 kts 101°
2026-05-07 20:39 43.64698 7.20278 26 ft 3 kts 50°
2026-05-07 20:39 43.64713 7.20302 26 ft 4 kts 50°
2026-05-07 20:39 43.64761 7.20371 27 ft 31 kts 46°
2026-05-07 20:39 43.65153 7.20907 27 ft 123 kts 46°
2026-05-07 20:40 43.65917 7.21957 238 ft 169 kts 45°
2026-05-07 20:40 43.66661 7.23182 1156 ft 167 kts 62°
2026-05-07 20:40 43.66826 7.24735 1938 ft 165 kts 103°
2026-05-07 20:40 43.66221 7.26015 2679 ft 160 kts 141°
2026-05-07 20:41 43.65323 7.26930 3348 ft 163 kts 143°
2026-05-07 20:41 43.64384 7.27920 3848 ft 177 kts 141°
2026-05-07 20:41 43.63404 7.29055 4348 ft 190 kts 136°
2026-05-07 20:41 43.62451 7.30410 4852 ft 203 kts 132°
2026-05-07 20:42 43.61463 7.31901 5326 ft 219 kts 133°
2026-05-07 20:42 43.60400 7.33464 5932 ft 232 kts 135°
2026-05-07 20:42 43.59224 7.35080 6596 ft 243 kts 144°
2026-05-07 20:42 43.57697 7.36091 7202 ft 248 kts 175°
2026-05-07 20:43 43.55983 7.35856 7839 ft 252 kts 206°
2026-05-07 20:43 43.54579 7.34410 8471 ft 259 kts 236°
2026-05-07 20:43 43.53905 7.32121 9245 ft 263 kts 264°
2026-05-07 20:43 43.54164 7.29657 10108 ft 268 kts 290°
2026-05-07 20:44 43.55006 7.27335 10983 ft 274 kts 296°
2026-05-07 20:44 43.55915 7.24946 11621 ft 289 kts 297°
2026-05-07 20:44 43.57003 7.22520 12152 ft 306 kts 301°
2026-05-07 20:44 43.58391 7.20196 12740 ft 321 kts 315°
2026-05-07 20:45 43.60316 7.18541 13547 ft 331 kts 332°
2026-05-07 20:45 43.62498 7.17431 14354 ft 337 kts 338°
2026-05-07 20:45 43.64743 7.16439 15132 ft 341 kts 339°
2026-05-07 20:45 43.67004 7.15482 15890 ft 345 kts 339°
2026-05-07 20:46 43.69303 7.14521 16682 ft 347 kts 339°
2026-05-07 20:46 43.71628 7.13537 17414 ft 350 kts 339°
2026-05-07 20:46 43.73978 7.12529 18120 ft 354 kts 339°
2026-05-07 20:46 43.76347 7.11505 18803 ft 358 kts 339°
2026-05-07 20:47 43.78742 7.10470 19469 ft 362 kts 339°
2026-05-07 20:47 43.81156 7.09429 20114 ft 365 kts 339°
2026-05-07 20:47 43.83569 7.08390 20731 ft 369 kts 339°
2026-05-07 20:47 43.86030 7.07330 21336 ft 372 kts 339°
2026-05-07 20:48 43.88518 7.06258 21925 ft 376 kts 339°
2026-05-07 20:48 43.91031 7.05172 22499 ft 379 kts 339°
2026-05-07 20:48 43.93566 7.04076 23059 ft 383 kts 339°
2026-05-07 20:48 43.96115 7.02973 23602 ft 386 kts 339°
2026-05-07 20:49 43.98699 7.01854 24130 ft 389 kts 339°
2026-05-07 20:49 44.01293 7.00728 24641 ft 392 kts 339°
2026-05-07 20:49 44.03910 6.99592 25137 ft 395 kts 339°
2026-05-07 20:49 44.05651 6.98836 25458 ft 397 kts 339°
2026-05-07 20:50 44.08306 6.97682 25941 ft 401 kts 339°
2026-05-07 20:50 44.11850 6.96140 26570 ft 405 kts 339°
2026-05-07 20:50 44.13674 6.95345 26886 ft 407 kts 339°
2026-05-07 20:50 44.16382 6.94165 27349 ft 410 kts 339°
2026-05-07 20:51 44.19113 6.92975 27806 ft 412 kts 339°
2026-05-07 20:51 44.21835 6.91787 28251 ft 415 kts 339°
2026-05-07 20:51 44.24600 6.90576 28694 ft 418 kts 339°
2026-05-07 20:51 44.27393 6.89353 29133 ft 421 kts 339°
2026-05-07 20:52 44.30207 6.88122 29565 ft 424 kts 339°
2026-05-07 20:52 44.33041 6.86880 29993 ft 427 kts 339°
2026-05-07 20:52 44.35891 6.85629 30417 ft 430 kts 339°
2026-05-07 20:52 44.38722 6.84386 30829 ft 433 kts 339°
2026-05-07 20:53 44.41611 6.83115 31239 ft 436 kts 339°
2026-05-07 20:53 44.44506 6.81841 31733 ft 436 kts 339°
2026-05-07 20:53 44.47397 6.80568 32275 ft 435 kts 339°
2026-05-07 20:53 44.50276 6.79297 32802 ft 434 kts 339°
2026-05-07 20:54 44.53152 6.78027 33317 ft 433 kts 339°
2026-05-07 20:54 44.56002 6.76761 33815 ft 431 kts 338°
2026-05-07 20:54 44.58726 6.75067 34297 ft 426 kts 328°
2026-05-07 20:54 44.61295 6.72983 34772 ft 424 kts 326°
2026-05-07 20:55 44.63793 6.70808 35238 ft 423 kts 325°
2026-05-07 20:55 44.66292 6.68608 35688 ft 422 kts 325°
2026-05-07 20:55 44.68802 6.66453 36116 ft 422 kts 326°
2026-05-07 20:55 44.71330 6.64349 36501 ft 422 kts 327°
2026-05-07 20:56 44.73870 6.62264 36874 ft 422 kts 327°
2026-05-07 20:56 44.76371 6.60200 37223 ft 422 kts 326°
2026-05-07 20:56 44.78898 6.58087 37560 ft 422 kts 326°
2026-05-07 20:56 44.81415 6.55961 37882 ft 422 kts 326°
2026-05-07 20:57 44.83946 6.53818 38016 ft 422 kts 326°
2026-05-07 20:57 44.88983 6.49576 38005 ft 421 kts 326°
2026-05-07 20:58 44.93994 6.45360 38007 ft 421 kts 326°
2026-05-07 20:58 44.99038 6.41092 38007 ft 421 kts 326°
2026-05-07 20:59 45.04040 6.36851 38009 ft 421 kts 326°
2026-05-07 20:59 45.09076 6.32575 38006 ft 421 kts 326°
2026-05-07 21:00 45.14109 6.28296 38002 ft 421 kts 326°
2026-05-07 21:00 45.19099 6.24040 38002 ft 421 kts 326°
2026-05-07 21:01 45.24137 6.19735 38006 ft 421 kts 326°
2026-05-07 21:01 45.29158 6.15437 38009 ft 421 kts 326°
2026-05-07 21:02 45.34149 6.11157 38013 ft 421 kts 326°
2026-05-07 21:02 45.39169 6.06843 38016 ft 421 kts 326°
2026-05-07 21:03 45.44188 6.02519 38020 ft 421 kts 326°
2026-05-07 21:03 45.49196 5.98195 38025 ft 421 kts 326°
2026-05-07 21:04 45.54178 5.93886 38029 ft 421 kts 326°
2026-05-07 21:04 45.59190 5.89541 38045 ft 421 kts 326°
2026-05-07 21:05 45.64202 5.85187 38041 ft 421 kts 326°
2026-05-07 21:05 45.69203 5.80834 38039 ft 420 kts 326°
2026-05-07 21:06 45.74170 5.76499 38033 ft 420 kts 326°
2026-05-07 21:06 45.79171 5.72129 38027 ft 420 kts 326°
2026-05-07 21:07 45.84175 5.67746 38022 ft 420 kts 326°
2026-05-07 21:07 45.89170 5.63358 38018 ft 420 kts 326°
2026-05-07 21:08 45.93574 5.59486 38014 ft 420 kts 326°
2026-05-07 21:08 45.98152 5.55448 38009 ft 420 kts 326°
2026-05-07 21:09 46.03142 5.51041 38004 ft 420 kts 326°
2026-05-07 21:09 46.08100 5.46653 38007 ft 420 kts 326°
2026-05-07 21:10 46.13089 5.42227 38008 ft 420 kts 325°
2026-05-07 21:10 46.18075 5.37795 38009 ft 420 kts 325°
2026-05-07 21:11 46.23021 5.33388 38011 ft 420 kts 325°
2026-05-07 21:11 46.30497 5.26713 38013 ft 420 kts 325°
2026-05-07 21:12 46.35473 5.22255 38015 ft 420 kts 325°
2026-05-07 21:12 46.40426 5.17805 38016 ft 420 kts 325°
2026-05-07 21:13 46.45401 5.13333 38019 ft 420 kts 325°
2026-05-07 21:13 46.50380 5.08844 38021 ft 420 kts 325°
2026-05-07 21:14 46.55343 5.04357 38024 ft 420 kts 325°
2026-05-07 21:14 46.60283 4.99886 38027 ft 420 kts 325°
2026-05-07 21:15 46.65249 4.95380 38030 ft 420 kts 325°
2026-05-07 21:15 46.70213 4.90865 38034 ft 420 kts 325°
2026-05-07 21:16 46.75149 4.86364 38038 ft 420 kts 325°
2026-05-07 21:16 46.80113 4.81830 38041 ft 420 kts 325°
2026-05-07 21:17 46.85072 4.77291 38042 ft 420 kts 325°
2026-05-07 21:17 46.90025 4.72750 38040 ft 420 kts 325°
2026-05-07 21:18 46.94943 4.68224 38035 ft 420 kts 325°
2026-05-07 21:18 46.99893 4.63663 38006 ft 420 kts 325°
2026-05-07 21:19 47.04840 4.59096 37966 ft 420 kts 325°
2026-05-07 21:19 47.09755 4.54546 37954 ft 420 kts 325°
2026-05-07 21:20 47.14703 4.49954 37955 ft 420 kts 325°
2026-05-07 21:20 47.19648 4.45356 37958 ft 420 kts 325°
2026-05-07 21:21 47.24591 4.40750 37979 ft 420 kts 324°
2026-05-07 21:21 47.29504 4.36161 37990 ft 420 kts 324°
2026-05-07 21:22 47.34436 4.31547 38000 ft 420 kts 324°
2026-05-07 21:22 47.39377 4.26910 38010 ft 420 kts 324°
2026-05-07 21:23 47.44315 4.22268 38021 ft 420 kts 324°
2026-05-07 21:23 47.49220 4.17644 38032 ft 420 kts 324°
2026-05-07 21:24 47.54146 4.12990 38042 ft 420 kts 324°
2026-05-07 21:24 47.59079 4.08322 38043 ft 420 kts 324°
2026-05-07 21:25 47.64009 4.03647 38043 ft 420 kts 324°
2026-05-07 21:25 47.68936 3.98960 38042 ft 420 kts 324°
2026-05-07 21:26 47.73860 3.94262 38041 ft 420 kts 324°
2026-05-07 21:26 47.78757 3.89587 38038 ft 420 kts 324°
2026-05-07 21:27 47.83686 3.84870 38035 ft 420 kts 324°
2026-05-07 21:27 47.88583 3.80204 38036 ft 421 kts 327°
2026-05-07 21:28 47.91267 3.78429 38026 ft 424 kts 338°
2026-05-07 21:28 47.94093 3.77102 38024 ft 425 kts 340°
2026-05-07 21:28 47.99809 3.74723 37990 ft 426 kts 341°
2026-05-07 21:29 48.05454 3.72193 37977 ft 425 kts 339°
2026-05-07 21:29 48.11110 3.69530 37969 ft 425 kts 340°
2026-05-07 21:30 48.16745 3.66960 37968 ft 425 kts 340°
2026-05-07 21:30 48.22420 3.64376 37971 ft 425 kts 340°
2026-05-07 21:31 48.28087 3.61760 37974 ft 425 kts 340°
2026-05-07 21:31 48.33716 3.59161 37977 ft 425 kts 340°
2026-05-07 21:32 48.39380 3.56550 37988 ft 425 kts 340°
2026-05-07 21:32 48.45040 3.53928 37999 ft 425 kts 340°
2026-05-07 21:33 48.50700 3.51299 38011 ft 425 kts 340°
2026-05-07 21:33 48.56339 3.48674 38023 ft 425 kts 340°
2026-05-07 21:34 48.61966 3.46053 37522 ft 418 kts 340°
2026-05-07 21:34 48.64752 3.44751 36764 ft 421 kts 339°
2026-05-07 21:34 48.67578 3.43426 35757 ft 429 kts 339°
2026-05-07 21:35 48.70425 3.42088 34822 ft 435 kts 340°
2026-05-07 21:35 48.73306 3.40738 34240 ft 431 kts 340°
2026-05-07 21:35 48.76153 3.39408 33860 ft 423 kts 340°
2026-05-07 21:35 48.78947 3.38100 33460 ft 416 kts 339°
2026-05-07 21:36 48.81692 3.36809 33059 ft 409 kts 339°
2026-05-07 21:36 48.84389 3.35536 32622 ft 404 kts 339°
2026-05-07 21:36 48.87067 3.34270 32141 ft 402 kts 339°
2026-05-07 21:36 48.89728 3.33011 31655 ft 400 kts 339°
2026-05-07 21:37 48.92350 3.31771 31175 ft 398 kts 339°
2026-05-07 21:37 48.94991 3.30523 30713 ft 395 kts 339°
2026-05-07 21:37 48.97612 3.29283 30262 ft 393 kts 339°
2026-05-07 21:37 49.00210 3.28051 29799 ft 391 kts 339°
2026-05-07 21:38 49.02809 3.26817 29312 ft 389 kts 339°
2026-05-07 21:38 49.05394 3.25588 28850 ft 387 kts 339°
2026-05-07 21:38 49.07959 3.24367 28390 ft 385 kts 339°
2026-05-07 21:38 49.10483 3.23166 27938 ft 383 kts 339°
2026-05-07 21:39 49.13025 3.21953 27492 ft 381 kts 339°
2026-05-07 21:39 49.15549 3.20748 27024 ft 379 kts 339°
2026-05-07 21:39 49.18060 3.19548 26558 ft 377 kts 339°
2026-05-07 21:39 49.20563 3.18351 26104 ft 375 kts 339°
2026-05-07 21:40 49.23055 3.17159 25671 ft 373 kts 339°
2026-05-07 21:40 49.24688 3.16377 25387 ft 371 kts 339°
2026-05-07 21:40 49.27149 3.15197 24947 ft 369 kts 339°
2026-05-07 21:40 49.29598 3.14021 24493 ft 367 kts 339°
2026-05-07 21:41 49.32006 3.12862 24071 ft 364 kts 339°
2026-05-07 21:41 49.34415 3.11702 23655 ft 362 kts 339°
2026-05-07 21:41 49.36819 3.10545 23239 ft 360 kts 339°
2026-05-07 21:41 49.39205 3.09395 22826 ft 358 kts 339°
2026-05-07 21:42 49.41578 3.08249 22430 ft 356 kts 339°
2026-05-07 21:42 49.43935 3.07111 22044 ft 354 kts 339°
2026-05-07 21:42 49.46289 3.06009 21638 ft 353 kts 342°
2026-05-07 21:42 49.48689 3.05220 21188 ft 352 kts 345°
2026-05-07 21:43 49.51080 3.04569 20595 ft 353 kts 346°
2026-05-07 21:43 49.53517 3.03944 19960 ft 356 kts 346°
2026-05-07 21:43 49.55954 3.03301 19500 ft 353 kts 346°
2026-05-07 21:43 49.58365 3.02633 19038 ft 351 kts 346°
2026-05-07 21:44 49.60752 3.01947 18582 ft 348 kts 345°
2026-05-07 21:44 49.63129 3.01259 18129 ft 346 kts 345°
2026-05-07 21:44 49.65489 3.00584 17684 ft 344 kts 346°
2026-05-07 21:44 49.67834 2.99919 17245 ft 341 kts 346°
2026-05-07 21:45 49.70168 2.99259 16812 ft 339 kts 346°
2026-05-07 21:45 49.72453 2.98611 16389 ft 337 kts 346°
2026-05-07 21:45 49.74759 2.97956 15965 ft 335 kts 346°
2026-05-07 21:45 49.77051 2.97304 15547 ft 333 kts 346°
2026-05-07 21:46 49.79323 2.96656 15135 ft 331 kts 346°
2026-05-07 21:46 49.81584 2.96011 14727 ft 329 kts 346°
2026-05-07 21:46 49.83797 2.95378 14324 ft 327 kts 346°
2026-05-07 21:46 49.86032 2.94739 13908 ft 325 kts 346°
2026-05-07 21:47 49.88265 2.94099 13275 ft 329 kts 346°
2026-05-07 21:47 49.90529 2.93448 12708 ft 331 kts 346°
2026-05-07 21:47 49.92787 2.92803 12263 ft 328 kts 346°
2026-05-07 21:47 49.95007 2.92170 12032 ft 319 kts 346°
2026-05-07 21:48 49.97166 2.91554 11750 ft 311 kts 346°
2026-05-07 21:48 49.99253 2.90954 11412 ft 307 kts 345°
2026-05-07 21:48 50.01336 2.90352 11066 ft 302 kts 345°
2026-05-07 21:48 50.03389 2.89760 10720 ft 298 kts 345°
2026-05-07 21:49 50.05425 2.89174 10375 ft 294 kts 345°
2026-05-07 21:49 50.07427 2.88596 10054 ft 290 kts 345°
2026-05-07 21:49 50.09398 2.88026 9700 ft 287 kts 345°
2026-05-07 21:49 50.11354 2.87459 9317 ft 285 kts 345°
2026-05-07 21:50 50.13274 2.86903 8942 ft 282 kts 345°
2026-05-07 21:50 50.15195 2.86348 8568 ft 279 kts 345°
2026-05-07 21:50 50.17094 2.85799 8199 ft 276 kts 345°
2026-05-07 21:50 50.18991 2.85248 7844 ft 276 kts 345°
2026-05-07 21:51 50.20873 2.84702 7495 ft 275 kts 345°
2026-05-07 21:51 50.22754 2.84155 7119 ft 275 kts 345°
2026-05-07 21:51 50.24634 2.83607 6742 ft 274 kts 345°
2026-05-07 21:51 50.26487 2.83068 6378 ft 272 kts 346°
2026-05-07 21:52 50.28333 2.82531 6006 ft 267 kts 346°
2026-05-07 21:52 50.30149 2.82003 5640 ft 262 kts 347°
2026-05-07 21:52 50.31935 2.81483 5294 ft 260 kts 348°
2026-05-07 21:52 50.33706 2.80965 5002 ft 254 kts 348°
2026-05-07 21:53 50.35399 2.80473 4883 ft 240 kts 348°
2026-05-07 21:53 50.36999 2.80006 4738 ft 228 kts 348°
2026-05-07 21:53 50.38548 2.79552 4422 ft 226 kts 349°
2026-05-07 21:53 50.40074 2.79104 4059 ft 226 kts 349°
2026-05-07 21:54 50.41620 2.78655 3711 ft 225 kts 349°
2026-05-07 21:54 50.43129 2.78217 3578 ft 214 kts 349°
2026-05-07 21:54 50.44562 2.77799 3433 ft 206 kts 349°
2026-05-07 21:54 50.45968 2.77388 3170 ft 204 kts 349°
2026-05-07 21:55 50.47362 2.76982 2997 ft 204 kts 349°
2026-05-07 21:55 50.48764 2.76573 2998 ft 204 kts 349°
2026-05-07 21:55 50.50159 2.76319 2990 ft 204 kts
2026-05-07 21:55 50.51472 2.77069 2983 ft 204 kts 40°
2026-05-07 21:56 50.52229 2.78919 3001 ft 204 kts 75°
2026-05-07 21:56 50.52473 2.81109 3017 ft 200 kts 82°
2026-05-07 21:56 50.52674 2.83207 3007 ft 189 kts 79°
2026-05-07 21:56 50.52949 2.85221 3007 ft 188 kts 76°
2026-05-07 21:57 50.53261 2.87219 2905 ft 188 kts 76°
2026-05-07 21:57 50.53558 2.89206 2619 ft 186 kts 77°
2026-05-07 21:57 50.53835 2.91177 2356 ft 183 kts 77°
2026-05-07 21:57 50.54105 2.93075 2112 ft 176 kts 77°
2026-05-07 21:58 50.54370 2.94906 1881 ft 163 kts 77°
2026-05-07 21:58 50.54613 2.96592 1656 ft 153 kts 77°
2026-05-07 21:58 50.54839 2.98172 1438 ft 144 kts 77°
2026-05-07 21:58 50.55042 2.99652 1240 ft 136 kts 78°
2026-05-07 21:59 50.55241 3.01107 1060 ft 136 kts 77°
2026-05-07 21:59 50.55448 3.02553 896 ft 135 kts 75°
2026-05-07 21:59 50.55680 3.03987 731 ft 135 kts 76°
2026-05-07 21:59 50.55882 3.05427 542 ft 135 kts 78°
2026-05-07 22:00 50.56081 3.06867 391 ft 134 kts 75°
2026-05-07 22:00 50.56285 3.08303 207 ft 134 kts 77°
2026-05-07 22:00 50.56471 3.09592 172 ft 100 kts 77°
2026-05-07 22:00 50.56585 3.10392 172 ft 50 kts 77°
2026-05-07 22:01 50.56630 3.10715 171 ft 23 kts 77°
2026-05-07 22:01 50.56691 3.10881 172 ft 16 kts 10°
2026-05-07 22:01 50.56799 3.10849 172 ft 16 kts 348°
2026-05-07 22:01 50.56914 3.10812 171 ft 18 kts 349°
2026-05-07 22:02 50.57037 3.10777 171 ft 15 kts 349°
2026-05-07 22:02 50.57107 3.10755 172 ft 9 kts 349°
2026-05-07 22:02 50.57153 3.10741 172 ft 5 kts 347°
2026-05-07 22:02 50.57167 3.10736 172 ft 0 kts 347°